EW0259 Weather Reports


time (UTC)temp
C
wind
direction
speed
KPH
gust
KPH
rain 1hr
cm
rain 24hr
cm
rain mn
cm
humidity
%
barometer
mb
20260904000303 17 58 1.6 8.0 0.00 0.43 0.25 68 1010.9
20260903235739 17 58 0.0 8.0 0.00 0.43 0.25 67 1010.8
20260903235227 18 88 1.6 6.4 0.00 0.43 0.25 67 1010.8
20260903234733 18 53 1.6 8.0 0.00 0.43 0.25 66 1010.8
20260903234220 18 109 4.8 8.0 0.00 0.43 0.25 65 1010.8
20260903233808 18 86 1.6 3.2 0.00 0.43 0.25 65 1010.9
20260903233223 18 59 1.6 6.4 0.00 0.43 0.25 67 1011.0
20260903232810 18 348 1.6 3.2 0.00 0.43 0.25 65 1010.9
20260903232738 18 348 1.6 3.2 0.00 0.43 0.25 65 1010.9
20260903232306 18 83 0.0 4.8 0.00 0.43 0.25 67 1010.9
20260903231800 18 65 1.6 8.0 0.00 0.66 0.25 68 1010.8
20260903231255 18 81 1.6 12.9 0.00 0.66 0.25 66 1010.7
20260903231224 18 81 1.6 12.9 0.00 0.66 0.25 66 1010.7
20260903230729 18 348 1.6 12.9 0.00 0.66 0.25 67 1010.7
20260903230256 18 78 4.8 9.7 0.03 0.66 0.25 67 1010.8
20260903230224 18 78 4.8 9.7 0.03 0.66 0.25 67 1010.8
20260903225731 18 84 1.6 9.7 0.03 0.66 0.25 68 1010.9
20260903225239 18 86 6.4 9.7 0.03 0.66 0.25 68 1010.8
20260903224729 18 34 4.8 8.0 0.03 0.66 0.25 69 1010.8
20260903224236 18 121 3.2 6.4 0.03 0.66 0.25 69 1010.8
20260903223724 17 38 1.6 6.4 0.05 0.66 0.25 69 1010.9
20260903223230 17 79 3.2 6.4 0.05 0.66 0.25 70 1011.0
20260903222737 17 35 1.6 4.8 0.08 0.66 0.25 75 1011.0
20260903222225 17 345 0.0 3.2 0.08 0.66 0.25 77 1011.0
20260903221731 17 340 0.0 3.2 0.08 0.84 0.25 76 1011.0
20260903221238 16 49 0.0 3.2 0.08 0.84 0.25 77 1010.9
20260903220806 16 31 1.6 3.2 0.08 0.84 0.25 75 1011.0
20260903220302 16 324 0.0 1.6 0.05 0.81 0.23 78 1011.0
20260903215757 16 71 0.0 0.0 0.05 0.81 0.23 78 1011.2
20260903215231 16 71 0.0 0.0 0.05 0.81 0.23 80 1011.2
20260903214735 16 71 0.0 0.0 0.05 0.81 0.23 81 1011.1
20260903214224 16 71 0.0 0.0 0.05 0.81 0.23 81 1011.1
20260903213805 16 72 0.0 3.2 0.03 0.79 0.20 78 1011.2
20260903213257 17 72 0.0 3.2 0.03 0.79 0.20 77 1011.3
20260903212734 17 67 0.0 3.2 0.00 0.76 0.18 70 1011.2
20260903212239 17 40 0.0 4.8 0.00 0.76 0.18 68 1011.3
20260903211803 17 289 0.0 6.4 0.00 0.84 0.18 67 1011.1
20260903211731 17 289 0.0 6.4 0.00 0.84 0.18 67 1011.1
20260903211231 17 317 1.6 6.4 0.00 0.84 0.18 69 1011.1
20260903210736 17 281 0.0 4.8 0.00 0.84 0.18 68 1011.2
20260903210241 17 90 3.2 9.7 0.00 0.84 0.18 67 1011.2
20260903205726 17 294 3.2 9.7 0.00 0.84 0.18 67 1011.2
20260903205231 17 19 1.6 3.2 0.00 0.84 0.18 65 1011.1
20260903204735 17 275 1.6 3.2 0.00 0.84 0.18 66 1011.1
20260903204240 17 114 0.0 6.4 0.00 0.84 0.18 65 1011.0
20260903203804 17 298 3.2 6.4 0.00 0.84 0.18 63 1010.9
20260903203238 18 315 3.2 8.0 0.00 0.84 0.18 63 1011.0
20260903202803 18 246 3.2 8.0 0.00 0.84 0.18 61 1010.8
20260903202731 18 246 3.2 8.0 0.00 0.84 0.18 61 1010.8
20260903202237 18 36 1.6 8.0 0.00 0.84 0.18 62 1010.7
20260903201724 18 348 3.2 6.4 0.00 0.94 0.18 64 1010.7
20260903201228 18 304 1.6 4.8 0.00 0.94 0.18 63 1010.7
20260903200733 17 27 0.0 6.4 0.00 0.94 0.18 65 1010.8
20260903200237 17 355 1.6 6.4 0.00 0.94 0.18 65 1010.8
20260903195742 17 284 1.6 6.4 0.00 0.94 0.18 66 1010.8
20260903195227 17 319 1.6 4.8 0.00 0.94 0.18 65 1010.8
20260903194730 17 240 1.6 9.7 0.00 0.94 0.18 64 1010.8
20260903194234 17 302 1.6 9.7 0.00 0.94 0.18 66 1010.9
20260903193739 17 194 1.6 4.8 0.00 0.94 0.18 70 1010.9
20260903193242 17 64 1.6 3.2 0.00 0.94 0.18 69 1010.9
20260903192727 17 51 1.6 9.7 0.00 0.94 0.18 68 1010.8
20260903192236 17 98 3.2 9.7 0.00 0.94 0.18 70 1010.9
20260903191739 16 117 1.6 6.4 0.00 0.94 0.18 70 1010.8
20260903191224 16 16 3.2 6.4 0.00 0.94 0.18 69 1010.9
20260903190728 16 237 1.6 8.0 0.00 0.94 0.18 70 1010.9
20260903190232 16 327 3.2 8.0 0.00 0.94 0.18 70 1010.8
20260903185736 16 165 0.0 4.8 0.00 0.94 0.18 71 1010.8
20260903185306 16 262 0.0 4.8 0.00 0.94 0.18 72 1010.7
20260903184734 16 153 1.6 4.8 0.00 0.94 0.18 72 1010.8
20260903184259 16 97 1.6 3.2 0.00 0.94 0.18 80 1010.9
20260903183811 16 84 0.0 3.2 0.00 0.94 0.18 77 1010.8
20260903183740 16 84 0.0 3.2 0.00 0.94 0.18 77 1010.8
20260903183223 16 111 0.0 4.8 0.00 0.94 0.18 81 1010.7
20260903182727 15 117 1.6 4.8 0.00 0.94 0.18 81 1010.7
20260903182232 15 99 1.6 3.2 0.00 0.94 0.18 79 1010.7
20260903181755 15 101 0.0 4.8 0.00 0.94 0.18 81 1010.6
20260903181228 15 158 1.6 4.8 0.00 0.94 0.18 81 1010.8
20260903180733 15 148 0.0 4.8 0.00 0.94 0.18 85 1010.7
20260903180241 15 148 0.0 4.8 0.00 0.94 0.18 85 1010.7
20260903175726 15 190 0.0 3.2 0.00 0.94 0.18 85 1010.7
20260903175312 15 261 0.0 3.2 0.00 0.94 0.18 85 1010.8
20260903174724 15 183 0.0 3.2 0.00 0.94 0.18 85 1010.6
20260903174309 15 165 1.6 3.2 0.00 0.94 0.18 85 1010.6
20260903173742 15 173 0.0 3.2 0.00 0.94 0.18 85 1010.6
20260903173226 15 123 1.6 9.7 0.00 0.94 0.18 86 1010.5
20260903172731 15 177 1.6 9.7 0.00 0.94 0.18 86 1010.5
20260903172256 15 145 1.6 6.4 0.00 0.94 0.18 86 1010.3
20260903171808 15 94 0.0 4.8 0.00 0.94 0.18 86 1010.3
20260903171737 15 94 0.0 4.8 0.00 0.94 0.18 86 1010.3
20260903171240 15 118 1.6 4.8 0.00 0.94 0.18 86 1010.3
20260903170724 14 88 1.6 4.8 0.00 0.94 0.18 86 1010.4
20260903170229 13 116 1.6 8.0 0.00 0.94 0.18 87 1010.5
20260903165814 13 64 3.2 8.0 0.00 0.94 0.18 88 1010.5
20260903165227 13 92 3.2 8.0 0.00 0.94 0.18 89 1010.4
20260903164730 13 85 3.2 4.8 0.00 0.94 0.18 90 1010.4
20260903164236 13 86 0.0 3.2 0.00 0.94 0.18 92 1010.5
20260903163725 13 101 0.0 1.6 0.00 0.94 0.18 92 1010.5
20260903163310 12 101 0.0 1.6 0.00 0.94 0.18 91 1010.4
20260903163238 12 101 0.0 1.6 0.00 0.94 0.18 91 1010.4
20260903162802 12 101 1.6 3.2 0.00 0.94 0.18 90 1010.4
20260903162225 12 86 1.6 4.8 0.00 0.94 0.18 91 1010.5
20260903161752 12 88 1.6 3.2 0.00 0.94 0.18 92 1010.5
20260903161227 12 36 0.0 0.0 0.00 0.94 0.18 91 1010.6
20260903160734 12 36 0.0 3.2 0.00 0.94 0.18 92 1010.6
20260903160301 12 343 0.0 3.2 0.00 0.94 0.18 91 1010.5
20260903155736 12 36 0.0 3.2 0.00 0.94 0.18 93 1010.5
20260903155224 12 74 1.6 3.2 0.00 0.94 0.18 93 1010.5
20260903154730 12 83 0.0 3.2 0.00 0.94 0.18 93 1010.5
20260903154257 12 66 1.6 3.2 0.00 0.94 0.18 94 1010.4
20260903154226 12 66 1.6 3.2 0.00 0.94 0.18 94 1010.4
20260903153732 12 114 0.0 3.2 0.00 0.94 0.18 95 1010.4
20260903153300 11 119 0.0 3.2 0.00 0.94 0.18 94 1010.4
20260903153229 11 119 0.0 3.2 0.00 0.94 0.18 94 1010.4
20260903152735 11 111 0.0 3.2 0.00 0.94 0.18 94 1010.3
20260903152223 11 130 0.0 3.2 0.00 0.94 0.18 94 1010.4
20260903151810 11 152 0.0 4.8 0.03 0.94 0.18 94 1010.4
20260903151305 11 81 0.0 6.4 0.03 0.94 0.18 95 1010.3
20260903150720 11 90 1.6 3.2 0.03 0.94 0.18 95 1010.3
20260903150307 11 86 0.0 3.2 0.03 0.94 0.18 95 1010.4
20260903150235 11 86 0.0 3.2 0.03 0.94 0.18 95 1010.4
20260903145726 11 88 0.0 6.4 0.03 0.94 0.18 95 1010.3
20260903145254 11 86 3.2 4.8 0.05 0.94 0.18 95 1010.4
20260903145223 11 86 3.2 4.8 0.05 0.94 0.18 95 1010.4
20260903144728 11 80 3.2 4.8 0.05 0.94 0.18 95 1010.2
20260903144235 11 74 1.6 3.2 0.05 0.94 0.18 95 1010.3
20260903143722 11 108 0.0 3.2 0.05 0.94 0.18 95 1010.3
20260903143229 11 130 0.0 3.2 0.05 0.94 0.18 95 1010.2
20260903142736 11 94 0.0 4.8 0.08 0.94 0.18 95 1010.2
20260903142225 11 76 3.2 4.8 0.08 0.94 0.18 95 1010.2
20260903141730 11 93 0.0 3.2 0.05 0.91 0.15 95 1010.2
20260903141237 11 53 0.0 0.0 0.05 0.91 0.15 95 1010.3
20260903140805 11 53 0.0 0.0 0.08 0.91 0.15 95 1010.2
20260903140220 11 53 0.0 0.0 0.08 0.91 0.15 95 1010.2
20260903135731 11 53 0.0 0.0 0.08 0.91 0.15 95 1010.1
20260903135259 11 46 0.0 0.0 0.05 0.89 0.13 95 1010.2
20260903135228 11 46 0.0 0.0 0.05 0.89 0.13 95 1010.2
20260903134733 11 46 0.0 3.2 0.05 0.89 0.13 95 1010.1
20260903134220 11 46 0.0 3.2 0.08 0.89 0.13 95 1010.0
20260903133808 11 46 0.0 3.2 0.08 0.89 0.13 95 1010.0
20260903133223 11 46 0.0 0.0 0.08 0.89 0.13 95 1009.9
20260903132731 11 46 0.0 0.0 0.05 0.86 0.10 95 1009.9
20260903132238 11 46 0.0 1.6 0.05 0.86 0.10 95 1009.9
20260903131725 11 46 0.0 3.2 0.08 0.86 0.10 95 1009.9
20260903131231 11 46 0.0 3.2 0.08 0.86 0.10 95 1009.9
20260903130738 11 254 0.0 0.0 0.05 0.84 0.08 95 1009.8
20260903130306 11 255 0.0 0.0 0.05 0.84 0.08 95 1009.9
20260903125721 11 254 0.0 0.0 0.05 0.84 0.08 95 1009.9
20260903125310 11 255 0.0 0.0 0.05 0.84 0.08 95 1009.9
20260903124727 11 254 0.0 0.0 0.05 0.84 0.08 95 1009.8
20260903124234 11 254 0.0 1.6 0.03 0.81 0.05 95 1009.9
20260903123722 11 255 0.0 3.2 0.03 0.81 0.05 95 1009.9
20260903123228 11 254 0.0 3.2 0.03 0.81 0.05 95 1009.8
20260903122735 11 255 0.0 3.2 0.03 0.81 0.05 95 1009.8
20260903122223 11 255 1.6 3.2 0.03 0.81 0.05 95 1009.8
20260903121809 11 215 0.0 0.0 0.00 0.79 0.03 95 1009.7
20260903121224 11 94 0.0 0.0 0.00 0.79 0.03 95 1009.7
20260903120731 11 93 0.0 0.0 0.00 0.79 0.03 95 1009.5
20260903120258 11 93 0.0 0.0 0.00 0.79 0.03 95 1009.4
20260903120226 11 93 0.0 0.0 0.00 0.79 0.03 95 1009.4
20260903115753 11 94 0.0 0.0 0.00 0.79 0.03 95 1009.3
20260903115229 10 93 0.0 0.0 0.00 0.79 0.03 95 1009.3
20260903114735 11 93 0.0 3.2 0.03 0.79 0.03 95 1009.1
20260903114226 10 93 0.0 3.2 0.03 0.79 0.03 95 1009.1
20260903113733 10 93 0.0 0.0 0.03 0.79 0.03 95 1009.2
20260903113220 10 94 0.0 0.0 0.03 0.79 0.03 95 1009.2
20260903112727 10 94 0.0 0.0 0.03 0.79 0.03 95 1009.2
20260903112236 10 93 0.0 0.0 0.03 0.79 0.03 95 1009.2
20260903111721 10 92 0.0 0.0 0.03 0.79 0.03 95 1009.2
20260903111228 10 92 0.0 0.0 0.03 0.79 0.03 95 1009.3
20260903110735 10 94 0.0 0.0 0.03 0.79 0.03 95 1009.3
20260903110222 10 92 0.0 0.0 0.03 0.79 0.03 95 1009.3
20260903105729 10 93 0.0 0.0 0.03 0.79 0.03 95 1009.2
20260903105258 10 94 0.0 0.0 0.03 0.79 0.03 95 1009.2
20260903104736 10 93 0.0 0.0 0.00 0.76 0.00 95 1009.1
20260903104303 10 93 0.0 0.0 0.00 0.76 0.00 95 1009.1
20260903103738 11 93 0.0 0.0 0.00 0.76 0.00 95 1009.3
20260903103305 10 93 0.0 0.0 0.00 0.76 0.00 95 1009.2
20260903102739 10 93 0.0 0.0 0.00 0.76 0.00 95 1009.2
20260903102227 10 93 0.0 0.0 0.00 0.76 0.00 95 1009.2
20260903101733 10 94 0.0 0.0 0.00 0.76 0.00 95 1009.2
20260903101220 10 93 0.0 0.0 0.00 0.76 0.00 95 1009.2
20260903100808 11 93 0.0 1.6 0.00 0.76 0.00 95 1009.2
20260903100223 11 93 0.0 3.2 0.00 0.76 0.00 95 1009.2
20260903095730 11 93 1.6 1.6 0.00 0.76 0.00 95 1009.1
20260903095238 11 93 0.0 0.0 0.00 0.76 0.00 95 1009.2
20260903094724 11 93 0.0 0.0 0.00 0.76 0.00 95 1009.2
20260903094234 11 93 0.0 3.2 0.00 0.76 0.00 95 1009.1
20260903093721 11 93 0.0 3.2 0.00 0.76 0.00 95 1009.1
20260903093228 11 93 0.0 3.2 0.00 0.76 0.00 95 1009.1
20260903092735 11 93 0.0 1.6 0.00 0.76 0.00 95 1009.1
20260903092223 11 94 0.0 0.0 0.00 0.76 0.00 95 1009.2
20260903091729 11 93 0.0 0.0 0.00 0.79 0.00 95 1009.2
20260903091236 10 93 0.0 0.0 0.00 0.79 0.00 95 1009.2
20260903090803 10 93 0.0 0.0 0.00 0.79 0.00 95 1009.1
20260903090238 10 93 0.0 0.0 0.03 0.79 0.00 95 1009.0
20260903085725 10 93 0.0 0.0 0.03 0.79 0.00 95 1009.1
20260903085253 10 93 0.0 0.0 0.03 0.79 0.00 95 1009.1
20260903084727 10 92 0.0 0.0 0.03 0.79 0.00 95 1009.1
20260903084238 10 93 0.0 0.0 0.03 0.79 0.00 95 1009.0
20260903083725 10 93 0.0 0.0 0.03 0.79 0.00 95 1009.1
20260903083232 10 92 0.0 0.0 0.03 0.79 0.00 95 1009.1
20260903082738 11 93 0.0 0.0 0.03 0.79 0.00 95 1009.1
20260903082306 11 93 0.0 0.0 0.03 0.79 0.00 95 1009.0
20260903081720 11 92 0.0 0.0 0.03 0.79 0.79 95 1009.1
20260903081227 10 93 0.0 0.0 0.03 0.79 0.79 95 1009.1
20260903080734 11 93 0.0 0.0 0.00 0.76 0.76 95 1009.1
20260903080221 10 93 0.0 0.0 0.00 0.76 0.76 95 1009.1
20260903075728 10 93 0.0 0.0 0.00 0.76 0.76 95 1009.1
20260903075256 10 93 0.0 0.0 0.00 0.76 0.76 95 1009.1
20260903074730 10 93 0.0 0.0 0.00 0.76 0.76 95 1009.1
20260903074220 10 93 0.0 0.0 0.00 0.76 0.76 95 1009.1
20260903073727 10 93 0.0 0.0 0.00 0.76 0.76 94 1009.1
20260903073229 10 93 0.0 0.0 0.00 0.76 0.76 94 1009.0
20260903072736 11 93 0.0 0.0 0.00 0.76 0.76 94 1009.0
20260903072224 11 93 0.0 0.0 0.00 0.76 0.76 94 1008.9
20260903071730 11 93 0.0 0.0 0.00 0.76 0.76 94 1008.8
20260903071257 11 94 0.0 0.0 0.00 0.76 0.76 94 1008.8
20260903070733 11 93 0.0 0.0 0.00 0.76 0.76 94 1008.7
20260903070301 11 93 0.0 0.0 0.00 0.76 0.76 95 1008.8
20260903065736 11 92 0.0 0.0 0.00 0.76 0.76 95 1008.7
20260903065224 11 93 0.0 0.0 0.00 0.76 0.76 95 1008.8
20260903064729 11 94 0.0 0.0 0.00 0.76 0.76 95 1008.8
20260903064257 11 93 0.0 0.0 0.00 0.76 0.76 95 1008.8
20260903063736 11 93 0.0 0.0 0.00 0.76 0.76 95 1008.7
20260903063303 11 93 0.0 0.0 0.00 0.76 0.76 95 1008.7
20260903062738 11 94 0.0 0.0 0.00 0.76 0.76 95 1008.8
20260903062227 11 93 0.0 0.0 0.00 0.76 0.76 95 1008.7
20260903061733 11 92 0.0 0.0 0.00 0.76 0.76 95 1008.8
20260903061301 11 93 0.0 0.0 0.00 0.76 0.76 94 1008.8
20260903060736 11 93 0.0 0.0 0.00 0.76 0.76 94 1008.8
20260903060223 11 93 0.0 0.0 0.00 0.76 0.76 94 1008.7
20260903055811 11 93 0.0 0.0 0.00 0.76 0.76 94 1008.8
20260903055307 11 93 0.0 0.0 0.00 0.76 0.76 94 1008.7
20260903055235 11 93 0.0 0.0 0.00 0.76 0.76 94 1008.7
20260903054802 11 93 0.0 0.0 0.00 0.76 0.76 94 1008.8
20260903054730 11 93 0.0 0.0 0.00 0.76 0.76 94 1008.8
20260903054257 11 93 0.0 0.0 0.00 0.76 0.76 94 1008.8
20260903054225 11 93 0.0 0.0 0.00 0.76 0.76 94 1008.8
20260903053732 11 94 0.0 0.0 0.00 0.76 0.76 94 1008.8
20260903053300 11 93 0.0 0.0 0.00 0.76 0.76 94 1008.8
20260903052735 11 93 0.0 0.0 0.00 0.76 0.76 94 1008.8
20260903052306 11 93 0.0 0.0 0.00 0.76 0.76 94 1008.7
20260903051759 11 93 0.0 0.0 0.00 0.76 0.76 94 1008.6
20260903051234 11 93 0.0 0.0 0.00 0.76 0.76 94 1008.6
20260903050721 11 93 0.0 0.0 0.00 0.76 0.76 94 1008.7
20260903050228 11 93 0.0 0.0 0.00 0.76 0.76 94 1008.6
20260903045739 12 93 0.0 0.0 0.00 0.76 0.76 94 1008.6
20260903045228 12 93 0.0 0.0 0.00 0.76 0.76 94 1008.5
20260903044753 12 93 0.0 0.0 0.00 0.76 0.76 94 1008.6
20260903044229 12 93 0.0 0.0 0.00 0.76 0.76 94 1008.7
20260903043735 12 94 0.0 0.0 0.00 0.76 0.76 94 1008.6
20260903043222 12 94 0.0 0.0 0.00 0.76 0.76 94 1008.5
20260903042729 12 93 0.0 0.0 0.00 0.76 0.76 93 1008.7
20260903042237 12 93 0.0 0.0 0.00 0.76 0.76 93 1008.6
20260903041723 12 93 0.0 0.0 0.00 0.76 0.76 93 1008.5
20260903041230 12 93 0.0 0.0 0.00 0.76 0.76 93 1008.4
20260903040721 12 93 0.0 0.0 0.00 0.76 0.76 93 1008.5
20260903040228 12 93 0.0 0.0 0.00 0.76 0.76 94 1008.5
20260903035735 12 93 0.0 0.0 0.00 0.76 0.76 93 1008.5
20260903035223 12 93 0.0 0.0 0.00 0.76 0.76 94 1008.3
20260903034729 13 93 0.0 1.6 0.00 0.76 0.76 94 1008.4
20260903034258 13 93 0.0 1.6 0.00 0.76 0.76 94 1008.2
20260903034226 13 93 0.0 1.6 0.00 0.76 0.76 94 1008.2
20260903033732 13 93 0.0 3.2 0.00 0.76 0.76 94 1008.2
20260903033239 13 93 0.0 3.2 0.00 0.76 0.76 93 1008.0
20260903032806 13 93 0.0 0.0 0.00 0.76 0.76 93 1007.9
20260903032734 13 93 0.0 0.0 0.00 0.76 0.76 93 1007.9
20260903032222 13 93 0.0 0.0 0.00 0.76 0.76 93 1007.8
20260903031728 13 93 0.0 0.0 0.00 0.76 0.76 93 1007.8
20260903031235 13 93 0.0 4.8 0.00 0.76 0.76 93 1007.7
20260903030726 13 93 0.0 4.8 0.00 0.76 0.76 94 1007.7
20260903030233 13 66 0.0 1.6 0.00 0.76 0.76 93 1007.7
20260903025800 13 65 1.6 3.2 0.00 0.76 0.76 93 1007.8
20260903025236 13 65 0.0 3.2 0.00 0.76 0.76 93 1007.7
20260903024722 13 65 0.0 3.2 0.00 0.76 0.76 93 1007.7
20260903024229 13 100 0.0 0.0 0.00 0.76 0.76 92 1007.5
20260903023736 13 99 0.0 1.6 0.00 0.76 0.76 92 1007.5
20260903023223 13 99 0.0 3.2 0.00 0.76 0.76 92 1007.5
20260903022811 13 99 0.0 3.2 0.00 0.76 0.76 92 1007.4
20260903022227 13 99 0.0 3.2 0.00 0.76 0.76 91 1007.5
20260903021733 13 100 0.0 3.2 0.00 0.76 0.76 91 1007.4
20260903021220 14 99 0.0 3.2 0.00 0.76 0.76 90 1007.4
20260903020731 14 89 0.0 9.7 0.00 0.76 0.76 90 1007.3
20260903020237 14 196 1.6 9.7 0.03 0.76 0.76 90 1007.4
20260903015724 15 107 3.2 4.8 0.03 0.76 0.76 92 1007.4
20260903015232 15 88 0.0 3.2 0.05 0.76 0.76 92 1007.3
20260903014758 15 76 0.0 3.2 0.08 0.76 0.76 92 1007.3
20260903014726 15 76 0.0 3.2 0.08 0.76 0.76 92 1007.3
20260903014233 15 30 1.6 3.2 0.10 0.76 0.76 91 1007.2
20260903013720 14 76 1.6 4.8 0.13 0.76 0.76 92 1007.2
20260903013307 14 299 0.0 4.8 0.15 0.76 0.76 92 1007.2
20260903013235 14 299 0.0 4.8 0.15 0.76 0.76 92 1007.2
20260903012803 14 161 0.0 9.7 0.15 0.76 0.76 91 1007.0
20260903012239 14 297 3.2 9.7 0.15 0.76 0.76 91 1006.9
20260903011725 14 88 0.0 9.7 0.15 0.76 0.76 91 1006.7
20260903011232 14 113 3.2 9.7 0.15 0.76 0.76 91 1006.6
20260903010739 14 114 1.6 8.0 0.15 0.76 0.76 91 1006.5
20260903010230 14 124 0.0 3.2 0.13 0.74 0.74 92 1006.5
20260903005737 14 149 0.0 6.4 0.13 0.74 0.74 91 1006.4
20260903005225 14 61 1.6 11.3 0.10 0.71 0.71 91 1006.5
20260903004731 15 163 3.2 11.3 0.08 0.69 0.69 91 1006.5
20260903004238 15 223 4.8 11.3 0.05 0.66 0.66 92 1006.4
20260903003725 15 210 1.6 11.3 0.03 0.64 0.64 93 1006.4
20260903003232 15 10 1.6 11.3 0.00 0.61 0.61 93 1006.3
20260903002759 15 20 1.6 6.4 0.00 0.61 0.61 93 1006.2
20260903002727 15 20 1.6 6.4 0.00 0.61 0.61 93 1006.2
20260903002235 15 259 3.2 6.4 0.00 0.61 0.61 93 1005.8
20260903001802 15 323 1.6 3.2 0.03 0.61 0.61 93 1005.5
20260903001729 15 323 1.6 3.2 0.03 0.61 0.61 93 1005.5
20260903001257 15 96 0.0 3.2 0.03 0.61 0.61 92 1005.6
20260903000732 15 105 0.0 3.2 0.05 0.61 0.61 92 1005.4